Time,TemperatureF,DewpointF,PressureIn,WindDirection,WindDirectionDegrees,WindSpeedMPH,WindSpeedGustMPH,Humidity,HourlyPrecipIn,Conditions,Clouds,dailyrainin,SolarRadiationWatts/m^2,SoftwareType,DateUTC
2016-09-25 00:04:00,70.0,-99.9,30.03,SW,227,0.0,-999.0,-999,-99.99,,,-99.99,-3.100000,,2016-09-25 04:04:00,
2016-09-25 00:25:00,70.0,-99.9,30.04,SW,226,0.0,-999.0,-999,-99.99,,,-99.99,-1.200000,,2016-09-25 04:25:00,
2016-09-25 01:19:00,69.0,-99.9,30.04,SSE,147,1.0,-999.0,-999,-99.99,,,-99.99,-3.200000,,2016-09-25 05:19:00,
2016-09-25 01:29:00,69.0,-99.9,30.04,SE,131,0.0,-999.0,-999,-99.99,,,-99.99,-3.200000,,2016-09-25 05:29:00,
2016-09-25 01:38:00,69.0,-99.9,30.04,SE,131,0.0,-999.0,-999,-99.99,,,-99.99,-3.200000,,2016-09-25 05:38:00,
2016-09-25 01:51:00,68.0,-99.9,30.04,SE,140,0.0,-999.0,-999,-99.99,,,-99.99,-3.700000,,2016-09-25 05:51:00,
2016-09-25 02:06:00,68.0,-99.9,30.04,South,172,1.0,-999.0,-999,-99.99,,,-99.99,-2.400000,,2016-09-25 06:06:00,
2016-09-25 02:15:00,68.0,-99.9,30.04,South,173,1.0,-999.0,-999,-99.99,,,-99.99,-3.700000,,2016-09-25 06:15:00,
2016-09-25 02:26:00,67.0,-99.9,30.04,ESE,121,0.0,-999.0,-999,-99.99,,,-99.99,-2.000000,,2016-09-25 06:26:00,
2016-09-25 02:37:00,67.0,-99.9,30.04,ESE,121,0.0,-999.0,-999,-99.99,,,-99.99,-2.000000,,2016-09-25 06:37:00,
2016-09-25 02:47:00,67.0,-99.9,30.04,ENE,78,1.0,-999.0,-999,-99.99,,,-99.99,-3.500000,,2016-09-25 06:47:00,
2016-09-25 02:57:00,67.0,-99.9,30.05,East,98,1.0,-999.0,-999,-99.99,,,-99.99,-3.000000,,2016-09-25 06:57:00,
2016-09-25 03:07:00,67.0,-99.9,30.05,East,98,1.0,-999.0,-999,-99.99,,,-99.99,-3.000000,,2016-09-25 07:07:00,
2016-09-25 03:16:00,67.0,-99.9,30.04,SE,139,1.0,-999.0,-999,-99.99,,,-99.99,-2.400000,,2016-09-25 07:16:00,
2016-09-25 03:25:00,67.0,-99.9,30.04,ESE,102,1.0,-999.0,-999,-99.99,,,-99.99,-3.600000,,2016-09-25 07:25:00,
2016-09-25 03:37:00,67.0,-99.9,30.04,ESE,102,1.0,-999.0,-999,-99.99,,,-99.99,-3.600000,,2016-09-25 07:37:00,
2016-09-25 03:51:00,67.0,-99.9,30.04,ESE,112,1.0,-999.0,-999,-99.99,,,-99.99,-2.400000,,2016-09-25 07:51:00,
2016-09-25 03:59:00,67.0,-99.9,30.04,SE,132,0.0,-999.0,-999,-99.99,,,-99.99,-2.900000,,2016-09-25 07:59:00,
2016-09-25 04:13:00,67.0,-99.9,30.04,East,81,1.0,-999.0,-999,-99.99,,,-99.99,-3.700000,,2016-09-25 08:13:00,
2016-09-25 04:24:00,66.0,-99.9,30.04,East,87,0.0,-999.0,-999,-99.99,,,-99.99,-2.700000,,2016-09-25 08:24:00,
2016-09-25 04:44:00,66.0,-99.9,30.04,ENE,65,0.0,-999.0,-999,-99.99,,,-99.99,-2.600000,,2016-09-25 08:44:00,
2016-09-25 05:04:00,66.0,-99.9,30.04,ENE,72,0.0,-999.0,-999,-99.99,,,-99.99,-3.300000,,2016-09-25 09:04:00,
2016-09-25 05:14:00,66.0,-99.9,30.04,SE,124,0.0,-999.0,-999,-99.99,,,-99.99,-3.200000,,2016-09-25 09:14:00,
2016-09-25 05:23:00,66.0,-99.9,30.04,SE,135,0.0,-999.0,-999,-99.99,,,-99.99,-2.800000,,2016-09-25 09:23:00,
2016-09-25 05:45:00,65.0,-99.9,30.04,East,97,0.0,-999.0,-999,-99.99,,,-99.99,-3.100000,,2016-09-25 09:45:00,
2016-09-25 05:57:00,66.0,-99.9,30.04,SE,137,0.0,-999.0,-999,-99.99,,,-99.99,,,2016-09-25 09:57:00,
2016-09-25 06:06:00,66.0,-99.9,30.04,SE,137,0.0,-999.0,-999,-99.99,,,-99.99,-3.000000,,2016-09-25 10:06:00,
2016-09-25 06:14:00,65.0,-99.9,30.04,East,80,0.0,-999.0,-999,-99.99,,,-99.99,-2.900000,,2016-09-25 10:14:00,
2016-09-25 06:24:00,65.0,-99.9,30.05,South,190,0.0,-999.0,-999,-99.99,,,-99.99,-3.000000,,2016-09-25 10:24:00,
2016-09-25 06:59:00,65.0,-99.9,30.06,East,81,1.0,-999.0,-999,-99.99,,,-99.99,-3.500000,,2016-09-25 10:59:00,
2016-09-25 07:08:00,65.0,-99.9,30.06,East,81,1.0,-999.0,-999,-99.99,,,-99.99,-3.500000,,2016-09-25 11:08:00,
2016-09-25 07:15:00,65.0,-99.9,30.06,SSE,150,0.0,-999.0,-999,-99.99,,,-99.99,-2.300000,,2016-09-25 11:15:00,
2016-09-25 07:30:00,65.0,-99.9,30.06,SSE,150,0.0,-999.0,-999,-99.99,,,-99.99,-2.300000,,2016-09-25 11:30:00,
2016-09-25 07:48:00,65.0,-99.9,30.07,North,-9999,0.0,-999.0,-999,-99.99,,,-99.99,-3.000000,,2016-09-25 11:48:00,
2016-09-25 08:00:00,65.0,-99.9,30.07,East,95,0.0,-999.0,-999,-99.99,,,-99.99,-0.900000,,2016-09-25 12:00:00,
2016-09-25 08:06:00,65.0,-99.9,30.07,East,95,0.0,-999.0,-999,-99.99,,,-99.99,-0.900000,,2016-09-25 12:06:00,
2016-09-25 08:15:00,65.0,-99.9,30.07,North,-9999,0.0,-999.0,-999,-99.99,,,-99.99,5.900000,,2016-09-25 12:15:00,
2016-09-25 08:28:00,65.0,-99.9,30.08,SSE,165,1.0,-999.0,-999,-99.99,,,-99.99,41.500000,,2016-09-25 12:28:00,
2016-09-25 08:36:00,65.0,-99.9,30.08,SSE,165,1.0,-999.0,-999,-99.99,,,-99.99,41.500000,,2016-09-25 12:36:00,
2016-09-25 08:47:00,65.0,-99.9,30.08,South,175,0.0,-999.0,-999,-99.99,,,-99.99,119.199997,,2016-09-25 12:47:00,
2016-09-25 09:01:00,65.0,-99.9,30.08,SSE,156,0.0,-999.0,-999,-99.99,,,-99.99,159.800003,,2016-09-25 13:01:00,
2016-09-25 09:06:00,65.0,-99.9,30.08,SSE,156,0.0,-999.0,-999,-99.99,,,-99.99,159.800003,,2016-09-25 13:06:00,
2016-09-25 09:16:00,66.0,-99.9,30.08,North,-9999,0.0,-999.0,-999,-99.99,,,-99.99,177.300003,,2016-09-25 13:16:00,